Year,Month,Day,Hour,Minute,Value (Times are PST for temperature in C)
2015,04,23,00,00,7.40
2015,04,23,00,01,7.40
2015,04,23,00,02,7.40
2015,04,23,00,03,7.40
2015,04,23,00,04,7.40
2015,04,23,00,05,7.40
2015,04,23,00,06,7.40
2015,04,23,00,07,7.40
2015,04,23,00,08,7.40
2015,04,23,00,09,7.40
2015,04,23,00,10,7.40
2015,04,23,00,11,7.40
2015,04,23,00,12,7.40
2015,04,23,00,13,7.40
2015,04,23,00,14,7.40
2015,04,23,00,15,7.40
2015,04,23,00,16,7.40
2015,04,23,00,17,7.40
2015,04,23,00,18,7.40
2015,04,23,00,19,7.40
2015,04,23,00,20,7.40
2015,04,23,00,21,7.40
2015,04,23,00,22,7.40
2015,04,23,00,23,7.40
2015,04,23,00,24,7.40
2015,04,23,00,25,7.40
2015,04,23,00,26,7.40
2015,04,23,00,27,7.40
2015,04,23,00,28,7.30
2015,04,23,00,29,7.30
2015,04,23,00,30,7.30
2015,04,23,00,31,7.30
2015,04,23,00,32,7.30
2015,04,23,00,33,7.30
2015,04,23,00,34,7.30
2015,04,23,00,35,7.30
2015,04,23,00,36,7.30
2015,04,23,00,37,7.20
2015,04,23,00,38,7.20
2015,04,23,00,39,7.20
2015,04,23,00,40,7.20
2015,04,23,00,41,7.20
2015,04,23,00,42,7.20
2015,04,23,00,43,7.20
2015,04,23,00,44,7.20
2015,04,23,00,45,7.20
2015,04,23,00,46,7.20
2015,04,23,00,47,7.10
2015,04,23,00,48,7.10
2015,04,23,00,49,7.10
2015,04,23,00,50,7.10
2015,04,23,00,51,7.10
2015,04,23,00,52,7.10
2015,04,23,00,53,7.10
2015,04,23,00,54,7.10
2015,04,23,00,55,7.10
2015,04,23,00,56,7.10
2015,04,23,00,57,7.10
2015,04,23,00,58,7.10
2015,04,23,00,59,7.10
2015,04,23,01,00,7.10
2015,04,23,01,01,7.00
2015,04,23,01,02,7.00
2015,04,23,01,03,7.00
2015,04,23,01,04,7.00
2015,04,23,01,05,7.00
2015,04,23,01,06,7.00
2015,04,23,01,07,7.00
2015,04,23,01,08,7.00
2015,04,23,01,09,7.00
2015,04,23,01,10,7.00
2015,04,23,01,11,7.10
2015,04,23,01,12,7.10
2015,04,23,01,13,7.10
2015,04,23,01,14,7.10
2015,04,23,01,15,7.10
2015,04,23,01,16,7.10
2015,04,23,01,17,7.10
2015,04,23,01,18,7.10
2015,04,23,01,19,7.10
2015,04,23,01,20,7.10
2015,04,23,01,21,7.20
2015,04,23,01,22,7.20
2015,04,23,01,23,7.20
2015,04,23,01,24,7.20
2015,04,23,01,25,7.20
2015,04,23,01,26,7.20
2015,04,23,01,27,7.20
2015,04,23,01,28,7.20
2015,04,23,01,29,7.20
2015,04,23,01,30,7.20
2015,04,23,01,31,7.20
2015,04,23,01,32,7.20
2015,04,23,01,33,7.20
2015,04,23,01,34,7.20
2015,04,23,01,35,7.20
2015,04,23,01,36,7.20
2015,04,23,01,37,7.20
2015,04,23,01,38,7.20
2015,04,23,01,39,7.20
2015,04,23,01,40,7.20
2015,04,23,01,41,7.20
2015,04,23,01,42,7.20
2015,04,23,01,43,7.20
2015,04,23,01,44,7.20
2015,04,23,01,45,7.20
2015,04,23,01,46,7.20
2015,04,23,01,47,7.20
2015,04,23,01,48,7.20
2015,04,23,01,49,7.20
2015,04,23,01,50,7.20
2015,04,23,01,51,7.20
2015,04,23,01,52,7.20
2015,04,23,01,53,7.20
2015,04,23,01,54,7.20
2015,04,23,01,55,7.20
2015,04,23,01,56,7.20
2015,04,23,01,57,7.20
2015,04,23,01,58,7.20
2015,04,23,01,59,7.20
2015,04,23,02,00,7.20
2015,04,23,02,01,7.20
2015,04,23,02,02,7.20
2015,04,23,02,03,7.20
2015,04,23,02,04,7.20
2015,04,23,02,05,7.20
2015,04,23,02,06,7.20
2015,04,23,02,07,7.20
2015,04,23,02,08,7.20
2015,04,23,02,09,7.20
2015,04,23,02,10,7.20
2015,04,23,02,11,7.20
2015,04,23,02,12,7.20
2015,04,23,02,13,7.20
2015,04,23,02,14,7.20
2015,04,23,02,15,7.20
2015,04,23,02,16,7.20
2015,04,23,02,17,7.20
2015,04,23,02,18,7.20
2015,04,23,02,19,7.20
2015,04,23,02,20,7.10
2015,04,23,02,21,7.10
2015,04,23,02,22,7.10
2015,04,23,02,23,7.10
2015,04,23,02,24,7.10
2015,04,23,02,25,7.10
2015,04,23,02,26,7.10
2015,04,23,02,27,7.10
2015,04,23,02,28,7.10
2015,04,23,02,29,7.10
2015,04,23,02,30,7.10
2015,04,23,02,31,7.10
2015,04,23,02,32,7.10
2015,04,23,02,33,7.10
2015,04,23,02,34,7.10
2015,04,23,02,35,7.10
2015,04,23,02,36,7.10
2015,04,23,02,37,7.10
2015,04,23,02,38,7.10
2015,04,23,02,39,7.10
2015,04,23,02,40,7.10
2015,04,23,02,41,7.10
2015,04,23,02,42,7.10
2015,04,23,02,43,7.00
2015,04,23,02,44,7.10
2015,04,23,02,45,7.00
2015,04,23,02,46,7.10
2015,04,23,02,47,7.10
2015,04,23,02,48,7.10
2015,04,23,02,49,7.00
2015,04,23,02,50,7.00
2015,04,23,02,51,7.10
2015,04,23,02,52,7.10
2015,04,23,02,53,7.10
2015,04,23,02,54,7.10
2015,04,23,02,55,7.10
2015,04,23,02,56,7.10
2015,04,23,02,57,7.10
2015,04,23,02,58,7.10
2015,04,23,02,59,7.10
2015,04,23,03,00,7.10
2015,04,23,03,01,7.00
2015,04,23,03,02,7.00
2015,04,23,03,03,7.00
2015,04,23,03,04,7.00
2015,04,23,03,05,7.00
2015,04,23,03,06,7.00
2015,04,23,03,07,7.00
2015,04,23,03,08,7.00
2015,04,23,03,09,7.00
2015,04,23,03,10,7.00
2015,04,23,03,11,7.00
2015,04,23,03,12,7.00
2015,04,23,03,13,7.00
2015,04,23,03,14,7.00
2015,04,23,03,15,6.90
2015,04,23,03,16,6.90
2015,04,23,03,17,6.90
2015,04,23,03,18,6.90
2015,04,23,03,19,7.00
2015,04,23,03,20,7.00
2015,04,23,03,21,7.00
2015,04,23,03,22,7.00
2015,04,23,03,23,7.00
2015,04,23,03,24,7.00
2015,04,23,03,25,7.00
2015,04,23,03,26,7.00
2015,04,23,03,27,7.00
2015,04,23,03,28,7.00
2015,04,23,03,29,7.00
2015,04,23,03,30,7.00
2015,04,23,03,31,6.90
2015,04,23,03,32,6.90
2015,04,23,03,33,6.90
2015,04,23,03,34,6.90
2015,04,23,03,35,6.90
2015,04,23,03,36,6.90
2015,04,23,03,37,6.90
2015,04,23,03,38,6.90
2015,04,23,03,39,6.90
2015,04,23,03,40,6.90
2015,04,23,03,41,6.90
2015,04,23,03,42,6.90
2015,04,23,03,43,6.90
2015,04,23,03,44,6.90
2015,04,23,03,45,6.90
2015,04,23,03,46,6.90
2015,04,23,03,47,6.90
2015,04,23,03,48,6.90
2015,04,23,03,49,7.00
2015,04,23,03,50,7.00
2015,04,23,03,51,7.00
2015,04,23,03,52,7.00
2015,04,23,03,53,7.00
2015,04,23,03,54,7.10
2015,04,23,03,55,7.10
2015,04,23,03,56,7.10
2015,04,23,03,57,7.10
2015,04,23,03,58,7.10
2015,04,23,03,59,7.20
2015,04,23,04,00,7.20
2015,04,23,04,01,7.20
2015,04,23,04,02,7.20
2015,04,23,04,03,7.20
2015,04,23,04,04,7.20
2015,04,23,04,05,7.20
2015,04,23,04,06,7.20
2015,04,23,04,07,7.20
2015,04,23,04,08,7.20
2015,04,23,04,09,7.20
2015,04,23,04,10,7.20
2015,04,23,04,11,7.20
2015,04,23,04,12,7.20
2015,04,23,04,13,7.20
2015,04,23,04,14,7.20
2015,04,23,04,15,7.20
2015,04,23,04,16,7.20
2015,04,23,04,17,7.20
2015,04,23,04,18,7.20
2015,04,23,04,19,7.20
2015,04,23,04,20,7.20
2015,04,23,04,21,7.20
2015,04,23,04,22,7.20
2015,04,23,04,23,7.20
2015,04,23,04,24,7.20
2015,04,23,04,25,7.20
2015,04,23,04,26,7.20
2015,04,23,04,27,7.20
2015,04,23,04,28,7.20
2015,04,23,04,29,7.20
2015,04,23,04,30,7.20
2015,04,23,04,31,7.20
2015,04,23,04,32,7.20
2015,04,23,04,33,7.20
2015,04,23,04,34,7.20
2015,04,23,04,35,7.10
2015,04,23,04,36,7.10
2015,04,23,04,37,7.10
2015,04,23,04,38,7.10
2015,04,23,04,39,7.10
2015,04,23,04,40,7.10
2015,04,23,04,41,7.10
2015,04,23,04,42,7.10
2015,04,23,04,43,7.00
2015,04,23,04,44,7.00
2015,04,23,04,45,7.00
2015,04,23,04,46,6.90
2015,04,23,04,47,6.90
2015,04,23,04,48,6.90
2015,04,23,04,49,6.90
2015,04,23,04,50,6.90
2015,04,23,04,51,6.90
2015,04,23,04,52,6.80
2015,04,23,04,53,6.80
2015,04,23,04,54,6.80
2015,04,23,04,55,6.80
2015,04,23,04,56,6.80
2015,04,23,04,57,6.80
2015,04,23,04,58,6.80
2015,04,23,04,59,6.80
2015,04,23,05,00,6.80
2015,04,23,05,01,6.70
2015,04,23,05,02,6.70
2015,04,23,05,03,6.70
2015,04,23,05,04,6.70
2015,04,23,05,05,6.70
2015,04,23,05,06,6.70
2015,04,23,05,07,6.70
2015,04,23,05,08,6.70
2015,04,23,05,09,6.70
2015,04,23,05,10,6.70
2015,04,23,05,11,6.70
2015,04,23,05,12,6.70
2015,04,23,05,13,6.60
2015,04,23,05,14,6.60
2015,04,23,05,15,6.60
2015,04,23,05,16,6.60
2015,04,23,05,17,6.60
2015,04,23,05,18,6.60
2015,04,23,05,19,6.60
2015,04,23,05,20,6.60
2015,04,23,05,21,6.60
2015,04,23,05,22,6.60
2015,04,23,05,23,6.50
2015,04,23,05,24,6.50
2015,04,23,05,25,6.50
2015,04,23,05,26,6.50
2015,04,23,05,27,6.50
2015,04,23,05,28,6.50
2015,04,23,05,29,6.50
2015,04,23,05,30,6.50
2015,04,23,05,31,6.50
2015,04,23,05,32,6.50
2015,04,23,05,33,6.50
2015,04,23,05,34,6.50
2015,04,23,05,35,6.50
2015,04,23,05,36,6.50
2015,04,23,05,37,6.50
2015,04,23,05,38,6.50
2015,04,23,05,39,6.50
2015,04,23,05,40,6.50
2015,04,23,05,41,6.50
2015,04,23,05,42,6.50
2015,04,23,05,43,6.50
2015,04,23,05,44,6.50
2015,04,23,05,45,6.50
2015,04,23,05,46,6.50
2015,04,23,05,47,6.50
2015,04,23,05,48,6.50
2015,04,23,05,49,6.50
2015,04,23,05,50,6.60
2015,04,23,05,51,6.60
2015,04,23,05,52,6.60
2015,04,23,05,53,6.60
2015,04,23,05,54,6.60
2015,04,23,05,55,6.60
2015,04,23,05,56,6.60
2015,04,23,05,57,6.60
2015,04,23,05,58,6.60
2015,04,23,05,59,6.50
2015,04,23,06,00,6.60
2015,04,23,06,01,6.60
2015,04,23,06,02,6.50
2015,04,23,06,03,6.50
2015,04,23,06,04,6.50
2015,04,23,06,05,6.50
2015,04,23,06,06,6.50
2015,04,23,06,07,6.50
2015,04,23,06,08,6.50
2015,04,23,06,09,6.50
2015,04,23,06,10,6.50
2015,04,23,06,11,6.50
2015,04,23,06,12,6.50
2015,04,23,06,13,6.50
2015,04,23,06,14,6.50
2015,04,23,06,15,6.50
2015,04,23,06,16,6.50
2015,04,23,06,17,6.50
2015,04,23,06,18,6.50
2015,04,23,06,19,6.50
2015,04,23,06,20,6.50
2015,04,23,06,21,6.50
2015,04,23,06,22,6.50
2015,04,23,06,23,6.50
2015,04,23,06,24,6.50
2015,04,23,06,25,6.50
2015,04,23,06,26,6.50
2015,04,23,06,27,6.50
2015,04,23,06,28,6.50
2015,04,23,06,29,6.50
2015,04,23,06,30,6.50
2015,04,23,06,31,6.50
2015,04,23,06,32,6.50
2015,04,23,06,33,6.50
2015,04,23,06,34,6.50
2015,04,23,06,35,6.60
2015,04,23,06,36,6.60
2015,04,23,06,37,6.60
2015,04,23,06,38,6.60
2015,04,23,06,39,6.60
2015,04,23,06,40,6.60
2015,04,23,06,41,6.60
2015,04,23,06,42,6.60
2015,04,23,06,43,6.60
2015,04,23,06,44,6.60
2015,04,23,06,45,6.60
2015,04,23,06,46,6.60
2015,04,23,06,47,6.60
2015,04,23,06,48,6.70
2015,04,23,06,49,6.60
2015,04,23,06,50,6.60
2015,04,23,06,51,6.60
2015,04,23,06,52,6.60
2015,04,23,06,53,6.60
2015,04,23,06,54,6.60
2015,04,23,06,55,6.60
2015,04,23,06,56,6.60
2015,04,23,06,57,6.60
2015,04,23,06,58,6.60
2015,04,23,06,59,6.60
2015,04,23,07,00,6.60
2015,04,23,07,01,6.60
2015,04,23,07,02,6.60
2015,04,23,07,03,6.60
2015,04,23,07,04,6.60
2015,04,23,07,05,6.60
2015,04,23,07,06,6.60
2015,04,23,07,07,6.70
2015,04,23,07,08,6.70
2015,04,23,07,09,6.70
2015,04,23,07,10,6.70
2015,04,23,07,11,6.70
2015,04,23,07,12,6.70
2015,04,23,07,13,6.80
2015,04,23,07,14,6.80
2015,04,23,07,15,6.80
2015,04,23,07,16,6.80
2015,04,23,07,17,6.80
2015,04,23,07,18,6.80
2015,04,23,07,19,6.80
2015,04,23,07,20,6.80
2015,04,23,07,21,6.80
2015,04,23,07,22,6.80
2015,04,23,07,23,6.90
2015,04,23,07,24,6.90
2015,04,23,07,25,6.90
2015,04,23,07,26,6.90
2015,04,23,07,27,6.90
2015,04,23,07,28,6.90
2015,04,23,07,29,6.90
2015,04,23,07,30,6.90
2015,04,23,07,31,6.90
2015,04,23,07,32,6.90
2015,04,23,07,33,6.90
2015,04,23,07,34,6.90
2015,04,23,07,35,6.90
2015,04,23,07,36,6.90
2015,04,23,07,37,6.90
2015,04,23,07,38,6.90
2015,04,23,07,39,6.90
2015,04,23,07,40,6.90
2015,04,23,07,41,7.00
2015,04,23,07,42,7.00
2015,04,23,07,43,7.00
2015,04,23,07,44,7.00
2015,04,23,07,45,7.00
2015,04,23,07,46,7.00
2015,04,23,07,47,7.10
2015,04,23,07,48,7.10
2015,04,23,07,49,7.10
2015,04,23,07,50,7.10
2015,04,23,07,51,7.10
2015,04,23,07,52,7.10
2015,04,23,07,53,7.10
2015,04,23,07,54,7.20
2015,04,23,07,55,7.20
2015,04,23,07,56,7.20
2015,04,23,07,57,7.20
2015,04,23,07,58,7.20
2015,04,23,07,59,7.20
2015,04,23,08,00,7.20
2015,04,23,08,01,7.20
2015,04,23,08,02,7.20
2015,04,23,08,03,7.20
2015,04,23,08,04,7.20
2015,04,23,08,05,7.20
2015,04,23,08,06,7.20
2015,04,23,08,07,7.20
2015,04,23,08,08,7.20
2015,04,23,08,09,7.30
2015,04,23,08,10,7.30
2015,04,23,08,11,7.30
2015,04,23,08,12,7.30
2015,04,23,08,13,7.30
2015,04,23,08,14,7.30
2015,04,23,08,15,7.30
2015,04,23,08,16,7.30
2015,04,23,08,17,7.30
2015,04,23,08,18,7.40
2015,04,23,08,19,7.40
2015,04,23,08,20,7.40
2015,04,23,08,21,7.40
2015,04,23,08,22,7.40
2015,04,23,08,23,7.40
2015,04,23,08,24,7.40
2015,04,23,08,25,7.40
2015,04,23,08,26,7.40
2015,04,23,08,27,7.40
2015,04,23,08,28,7.40
2015,04,23,08,29,7.40
2015,04,23,08,30,7.40
2015,04,23,08,31,7.40
2015,04,23,08,32,7.40
2015,04,23,08,33,7.30
2015,04,23,08,34,7.40
2015,04,23,08,35,7.30
2015,04,23,08,36,7.30
2015,04,23,08,37,7.30
2015,04,23,08,38,7.30
2015,04,23,08,39,7.30
2015,04,23,08,40,7.30
2015,04,23,08,41,7.30
2015,04,23,08,42,7.30
2015,04,23,08,43,7.30
2015,04,23,08,44,7.30
2015,04,23,08,45,7.30
2015,04,23,08,46,7.30
2015,04,23,08,47,7.30
2015,04,23,08,48,7.30
2015,04,23,08,49,7.30
2015,04,23,08,50,7.30
2015,04,23,08,51,7.30
2015,04,23,08,52,7.30
2015,04,23,08,53,7.20
2015,04,23,08,54,7.30
2015,04,23,08,55,7.20
2015,04,23,08,56,7.20
2015,04,23,08,57,7.20
2015,04,23,08,58,7.20
2015,04,23,08,59,7.20
2015,04,23,09,00,7.20
2015,04,23,09,01,7.20
2015,04,23,09,02,7.10
2015,04,23,09,03,7.10
2015,04,23,09,04,7.10
2015,04,23,09,05,7.10
2015,04,23,09,06,7.00
2015,04,23,09,07,7.00
2015,04,23,09,08,7.00
2015,04,23,09,09,6.90
2015,04,23,09,10,6.90
2015,04,23,09,11,6.90
2015,04,23,09,12,6.80
2015,04,23,09,13,6.80
2015,04,23,09,14,6.80
2015,04,23,09,15,6.80
2015,04,23,09,16,6.70
2015,04,23,09,17,6.70
2015,04,23,09,18,6.70
2015,04,23,09,19,6.70
2015,04,23,09,20,6.70
2015,04,23,09,21,6.70
2015,04,23,09,22,6.70
2015,04,23,09,23,6.60
2015,04,23,09,24,6.60
2015,04,23,09,25,6.60
2015,04,23,09,26,6.60
2015,04,23,09,27,6.60
2015,04,23,09,28,6.60
2015,04,23,09,29,6.60
2015,04,23,09,30,6.60
2015,04,23,09,31,6.60
2015,04,23,09,32,6.60
2015,04,23,09,33,6.50
2015,04,23,09,34,6.50
2015,04,23,09,35,6.50
2015,04,23,09,36,6.50
2015,04,23,09,37,6.40
2015,04,23,09,38,6.40
2015,04,23,09,39,6.40
2015,04,23,09,40,6.40
2015,04,23,09,41,6.40
2015,04,23,09,42,6.40
2015,04,23,09,43,6.40
2015,04,23,09,44,6.40
2015,04,23,09,45,6.40
2015,04,23,09,46,6.40
2015,04,23,09,47,6.40
2015,04,23,09,48,6.40
2015,04,23,09,49,6.40
2015,04,23,09,50,6.40
2015,04,23,09,51,6.40
2015,04,23,09,52,6.40
2015,04,23,09,53,6.40
2015,04,23,09,54,6.40
2015,04,23,09,55,6.30
2015,04,23,09,56,6.30
2015,04,23,09,57,6.30
2015,04,23,09,58,6.30
2015,04,23,09,59,6.30
2015,04,23,10,00,6.30
2015,04,23,10,01,6.30
2015,04,23,10,02,6.30
2015,04,23,10,03,6.40
2015,04,23,10,04,6.40
2015,04,23,10,05,6.40
2015,04,23,10,06,6.40
2015,04,23,10,07,6.40
2015,04,23,10,08,6.40
2015,04,23,10,09,6.50
2015,04,23,10,10,6.50
2015,04,23,10,11,6.50
2015,04,23,10,12,6.50
2015,04,23,10,13,6.50
2015,04,23,10,14,6.60
2015,04,23,10,15,6.50
2015,04,23,10,16,6.50
2015,04,23,10,17,6.60
2015,04,23,10,18,6.60
2015,04,23,10,19,6.60
2015,04,23,10,20,6.60
2015,04,23,10,21,6.60
2015,04,23,10,22,6.60
2015,04,23,10,23,6.70
2015,04,23,10,24,6.70
2015,04,23,10,25,6.70
2015,04,23,10,26,6.70
2015,04,23,10,27,6.70
2015,04,23,10,28,6.70
2015,04,23,10,29,6.70
2015,04,23,10,30,6.70
2015,04,23,10,31,6.70
2015,04,23,10,32,6.60
2015,04,23,10,33,6.60
2015,04,23,10,34,6.60
2015,04,23,10,35,6.60
2015,04,23,10,36,6.60
2015,04,23,10,37,6.60
2015,04,23,10,38,6.60
2015,04,23,10,39,6.60
2015,04,23,10,40,6.60
2015,04,23,10,41,6.60
2015,04,23,10,42,6.60
2015,04,23,10,43,6.70
2015,04,23,10,44,6.70
2015,04,23,10,45,6.70
2015,04,23,10,46,6.70
2015,04,23,10,47,6.70
2015,04,23,10,48,6.70
2015,04,23,10,49,6.70
2015,04,23,10,50,6.70
2015,04,23,10,51,6.70
2015,04,23,10,52,6.70
2015,04,23,10,53,6.70
2015,04,23,10,54,6.70
2015,04,23,10,55,6.70
2015,04,23,10,56,6.70
2015,04,23,10,57,6.70
2015,04,23,10,58,6.70
2015,04,23,10,59,6.70
2015,04,23,11,00,6.70
2015,04,23,11,01,6.80
2015,04,23,11,02,6.80
2015,04,23,11,03,6.80
2015,04,23,11,04,6.80
2015,04,23,11,05,6.80
2015,04,23,11,06,6.80
2015,04,23,11,07,6.80
2015,04,23,11,08,6.80
2015,04,23,11,09,6.80
2015,04,23,11,10,6.90
2015,04,23,11,11,6.90
2015,04,23,11,12,7.00
2015,04,23,11,13,7.00
2015,04,23,11,14,7.00
2015,04,23,11,15,7.10
2015,04,23,11,16,7.10
2015,04,23,11,17,7.00
2015,04,23,11,18,7.10
2015,04,23,11,19,7.10
2015,04,23,11,20,7.10
2015,04,23,11,21,7.10
2015,04,23,11,22,7.10
2015,04,23,11,23,7.10
2015,04,23,11,24,7.10
2015,04,23,11,25,7.20
2015,04,23,11,26,7.20
2015,04,23,11,27,7.20
2015,04,23,11,28,7.20
2015,04,23,11,29,7.20
2015,04,23,11,30,7.20
2015,04,23,11,31,7.30
2015,04,23,11,32,7.30
2015,04,23,11,33,7.30
2015,04,23,11,34,7.30
2015,04,23,11,35,7.30
2015,04,23,11,36,7.30
2015,04,23,11,37,7.30
2015,04,23,11,38,7.30
2015,04,23,11,39,7.30
2015,04,23,11,40,7.30
2015,04,23,11,41,7.30
2015,04,23,11,42,7.30
2015,04,23,11,43,7.30
2015,04,23,11,44,7.30
2015,04,23,11,45,7.30
2015,04,23,11,46,7.20
2015,04,23,11,47,7.20
2015,04,23,11,48,7.20
2015,04,23,11,49,7.20
2015,04,23,11,50,7.20
2015,04,23,11,51,7.30
2015,04,23,11,52,7.30
2015,04,23,11,53,7.30
2015,04,23,11,54,7.30
2015,04,23,11,55,7.30
2015,04,23,11,56,7.40
2015,04,23,11,57,7.30
2015,04,23,11,58,7.30
2015,04,23,11,59,7.40
2015,04,23,12,00,7.40
2015,04,23,12,01,7.40
2015,04,23,12,02,7.40
2015,04,23,12,03,7.40
2015,04,23,12,04,7.40
2015,04,23,12,05,7.40
2015,04,23,12,06,7.30
2015,04,23,12,07,7.30
2015,04,23,12,08,7.30
2015,04,23,12,09,7.30
2015,04,23,12,10,7.30
2015,04,23,12,11,7.30
2015,04,23,12,12,7.30
2015,04,23,12,13,7.30
2015,04,23,12,14,7.30
2015,04,23,12,15,7.30
2015,04,23,12,16,7.30
2015,04,23,12,17,7.40
2015,04,23,12,18,7.40
2015,04,23,12,19,7.40
2015,04,23,12,20,7.40
2015,04,23,12,21,7.50
2015,04,23,12,22,7.50
2015,04,23,12,23,7.50
2015,04,23,12,24,7.60
2015,04,23,12,25,7.60
2015,04,23,12,26,7.60
2015,04,23,12,27,7.70
2015,04,23,12,28,7.70
2015,04,23,12,29,7.70
2015,04,23,12,30,7.70
2015,04,23,12,31,7.70
2015,04,23,12,32,7.80
2015,04,23,12,33,7.80
2015,04,23,12,34,7.80
2015,04,23,12,35,7.80
2015,04,23,12,36,7.80
2015,04,23,12,37,7.80
2015,04,23,12,38,7.80
2015,04,23,12,39,7.80
2015,04,23,12,40,7.80
2015,04,23,12,41,7.90
2015,04,23,12,42,7.90
2015,04,23,12,43,7.90
2015,04,23,12,44,7.90
2015,04,23,12,45,7.90
2015,04,23,12,46,7.90
2015,04,23,12,47,7.90
2015,04,23,12,48,7.90
2015,04,23,12,49,7.90
2015,04,23,12,50,7.90
2015,04,23,12,51,7.90
2015,04,23,12,52,7.90
2015,04,23,12,53,7.90
2015,04,23,12,54,7.90
2015,04,23,12,55,7.90
2015,04,23,12,56,7.90
2015,04,23,12,57,7.90
2015,04,23,12,58,7.90
2015,04,23,12,59,8.00
2015,04,23,13,00,8.00
2015,04,23,13,01,8.00
2015,04,23,13,02,8.10
2015,04,23,13,03,8.00
2015,04,23,13,04,8.00
2015,04,23,13,05,8.10
2015,04,23,13,06,8.10
2015,04,23,13,07,8.20
2015,04,23,13,08,8.20
2015,04,23,13,09,8.20
2015,04,23,13,10,8.20
2015,04,23,13,11,8.20
2015,04,23,13,12,8.20
2015,04,23,13,13,8.20
2015,04,23,13,14,8.30
2015,04,23,13,15,8.30
2015,04,23,13,16,8.30
2015,04,23,13,17,8.40
2015,04,23,13,18,8.40
2015,04,23,13,19,8.50
2015,04,23,13,20,8.50
2015,04,23,13,21,8.60
2015,04,23,13,22,8.60
2015,04,23,13,23,8.60
2015,04,23,13,24,8.60
2015,04,23,13,25,8.60
2015,04,23,13,26,8.60
2015,04,23,13,27,8.60
2015,04,23,13,28,8.60
2015,04,23,13,29,8.70
2015,04,23,13,30,8.70
2015,04,23,13,31,8.70
2015,04,23,13,32,8.70
2015,04,23,13,33,8.60
2015,04,23,13,34,8.60
2015,04,23,13,35,8.60
2015,04,23,13,36,8.60
2015,04,23,13,37,8.60
2015,04,23,13,38,8.70
2015,04,23,13,39,8.70
2015,04,23,13,40,8.70
2015,04,23,13,41,8.70
2015,04,23,13,42,8.70
2015,04,23,13,43,8.80
2015,04,23,13,44,8.80
2015,04,23,13,45,8.80
2015,04,23,13,46,8.80
2015,04,23,13,47,8.70
2015,04,23,13,48,8.70
2015,04,23,13,49,8.70
2015,04,23,13,50,8.70
2015,04,23,13,51,8.70
2015,04,23,13,52,8.70
2015,04,23,13,53,8.70
2015,04,23,13,54,8.80
2015,04,23,13,55,8.80
2015,04,23,13,56,8.80
2015,04,23,13,57,8.80
2015,04,23,13,58,8.70
2015,04,23,13,59,8.70
2015,04,23,14,00,8.70
2015,04,23,14,01,8.70
2015,04,23,14,02,8.70
2015,04,23,14,03,8.70
2015,04,23,14,04,8.70
2015,04,23,14,05,8.70
2015,04,23,14,06,8.70
2015,04,23,14,07,8.70
2015,04,23,14,08,8.70
2015,04,23,14,09,8.70
2015,04,23,14,10,8.70
2015,04,23,14,11,8.70
2015,04,23,14,12,8.70
2015,04,23,14,13,8.70
2015,04,23,14,14,8.70
2015,04,23,14,15,8.70
2015,04,23,14,16,8.70
2015,04,23,14,17,8.60
2015,04,23,14,18,8.60
2015,04,23,14,19,8.60
2015,04,23,14,20,8.60
2015,04,23,14,21,8.60
2015,04,23,14,22,8.60
2015,04,23,14,23,8.60
2015,04,23,14,24,8.60
2015,04,23,14,25,8.60
2015,04,23,14,26,8.50
2015,04,23,14,27,8.50
2015,04,23,14,28,8.50
2015,04,23,14,29,8.40
2015,04,23,14,30,8.40
2015,04,23,14,31,8.30
2015,04,23,14,32,8.30
2015,04,23,14,33,8.30
2015,04,23,14,34,8.30
2015,04,23,14,35,8.30
2015,04,23,14,36,8.20
2015,04,23,14,37,8.20
2015,04,23,14,38,8.20
2015,04,23,14,39,8.20
2015,04,23,14,40,8.20
2015,04,23,14,41,8.20
2015,04,23,14,42,8.20
2015,04,23,14,43,8.20
2015,04,23,14,44,8.20
2015,04,23,14,45,8.20
2015,04,23,14,46,8.20
2015,04,23,14,47,8.20
2015,04,23,14,48,8.20
2015,04,23,14,49,8.20
2015,04,23,14,50,8.20
2015,04,23,14,51,8.20
2015,04,23,14,52,8.20
2015,04,23,14,53,8.20
2015,04,23,14,54,8.20
2015,04,23,14,55,8.20
2015,04,23,14,56,8.20
2015,04,23,14,57,8.30
2015,04,23,14,58,8.30
2015,04,23,14,59,8.30
2015,04,23,15,00,8.40
2015,04,23,15,01,8.40
2015,04,23,15,02,8.40
2015,04,23,15,03,8.40
2015,04,23,15,04,8.50
2015,04,23,15,05,8.50
2015,04,23,15,06,8.50
2015,04,23,15,07,8.50
2015,04,23,15,08,8.50
2015,04,23,15,09,8.50
2015,04,23,15,10,8.50
2015,04,23,15,11,8.50
2015,04,23,15,12,8.50
2015,04,23,15,13,8.60
2015,04,23,15,14,8.60
2015,04,23,15,15,8.70
2015,04,23,15,16,8.70
2015,04,23,15,17,8.80
2015,04,23,15,18,8.80
2015,04,23,15,19,8.80
2015,04,23,15,20,8.80
2015,04,23,15,21,8.80
2015,04,23,15,22,8.80
2015,04,23,15,23,8.80
2015,04,23,15,24,8.90
2015,04,23,15,25,9.00
2015,04,23,15,26,9.10
2015,04,23,15,27,9.20
2015,04,23,15,28,9.30
2015,04,23,15,29,9.40
2015,04,23,15,30,9.50
2015,04,23,15,31,9.50
2015,04,23,15,32,9.60
2015,04,23,15,33,9.60
2015,04,23,15,34,9.70
2015,04,23,15,35,9.60
2015,04,23,15,36,9.60
2015,04,23,15,37,9.60
2015,04,23,15,38,9.60
2015,04,23,15,39,9.60
2015,04,23,15,40,9.60
2015,04,23,15,41,9.60
2015,04,23,15,42,9.70
2015,04,23,15,43,9.70
2015,04,23,15,44,9.70
2015,04,23,15,45,9.80
2015,04,23,15,46,9.90
2015,04,23,15,47,10.00
2015,04,23,15,48,10.10
2015,04,23,15,49,10.20
2015,04,23,15,50,10.20
2015,04,23,15,51,10.30
2015,04,23,15,52,10.30
2015,04,23,15,53,10.30
2015,04,23,15,54,10.30
2015,04,23,15,55,10.30
2015,04,23,15,56,10.30
2015,04,23,15,57,10.30
2015,04,23,15,58,10.30
2015,04,23,15,59,10.40
2015,04,23,16,00,10.40
2015,04,23,16,01,10.50
2015,04,23,16,02,10.60
2015,04,23,16,03,10.50
2015,04,23,16,04,10.40
2015,04,23,16,05,10.30
2015,04,23,16,06,10.20
2015,04,23,16,07,10.10
2015,04,23,16,08,10.00
2015,04,23,16,09,9.90
2015,04,23,16,10,9.80
2015,04,23,16,11,9.70
2015,04,23,16,12,9.70
2015,04,23,16,13,9.60
2015,04,23,16,14,9.60
2015,04,23,16,15,9.60
2015,04,23,16,16,9.60
2015,04,23,16,17,9.60
2015,04,23,16,18,9.60
2015,04,23,16,19,9.60
2015,04,23,16,20,9.60
2015,04,23,16,21,9.60
2015,04,23,16,22,9.50
2015,04,23,16,23,9.50
2015,04,23,16,24,9.40
2015,04,23,16,25,9.40
2015,04,23,16,26,9.40
2015,04,23,16,27,9.40
2015,04,23,16,28,9.40
2015,04,23,16,29,9.40
2015,04,23,16,30,9.40
2015,04,23,16,31,9.50
2015,04,23,16,32,9.50
2015,04,23,16,33,9.60
2015,04,23,16,34,9.60
2015,04,23,16,35,9.60
2015,04,23,16,36,9.60
2015,04,23,16,37,9.70
2015,04,23,16,38,9.70
2015,04,23,16,39,9.70
2015,04,23,16,40,9.60
2015,04,23,16,41,9.50
2015,04,23,16,42,9.40
2015,04,23,16,43,9.30
2015,04,23,16,44,9.30
2015,04,23,16,45,9.30
2015,04,23,16,46,9.30
2015,04,23,16,47,9.20
2015,04,23,16,48,9.20
2015,04,23,16,49,9.10
2015,04,23,16,50,9.10
2015,04,23,16,51,9.00
2015,04,23,16,52,8.90
2015,04,23,16,53,8.90
2015,04,23,16,54,8.80
2015,04,23,16,55,8.80
2015,04,23,16,56,8.70
2015,04,23,16,57,8.70
2015,04,23,16,58,8.70
2015,04,23,16,59,8.60
2015,04,23,17,00,8.60
2015,04,23,17,01,8.60
2015,04,23,17,02,8.50
2015,04,23,17,03,8.50
2015,04,23,17,04,8.40
2015,04,23,17,05,8.40
2015,04,23,17,06,8.40
2015,04,23,17,07,8.40
2015,04,23,17,08,8.40
2015,04,23,17,09,8.40
2015,04,23,17,10,8.40
2015,04,23,17,11,8.40
2015,04,23,17,12,8.40
2015,04,23,17,13,8.40
2015,04,23,17,14,8.40
2015,04,23,17,15,8.40
2015,04,23,17,16,8.50
2015,04,23,17,17,8.50
2015,04,23,17,18,8.40
2015,04,23,17,19,8.40
2015,04,23,17,20,8.40
2015,04,23,17,21,8.40
2015,04,23,17,22,8.40
2015,04,23,17,23,8.30
2015,04,23,17,24,8.30
2015,04,23,17,25,8.20
2015,04,23,17,26,8.00
2015,04,23,17,27,7.90
2015,04,23,17,28,7.80
2015,04,23,17,29,7.60
2015,04,23,17,30,7.50
2015,04,23,17,31,7.50
2015,04,23,17,32,7.50
2015,04,23,17,33,7.40
2015,04,23,17,34,7.40
2015,04,23,17,35,7.40
2015,04,23,17,36,7.40
2015,04,23,17,37,7.40
2015,04,23,17,38,7.50
2015,04,23,17,39,7.50
2015,04,23,17,40,7.50
2015,04,23,17,41,7.40
2015,04,23,17,42,7.50
2015,04,23,17,43,7.50
2015,04,23,17,44,7.60
2015,04,23,17,45,7.60
2015,04,23,17,46,7.70
2015,04,23,17,47,7.80
2015,04,23,17,48,7.90
2015,04,23,17,49,8.00
2015,04,23,17,50,8.20
2015,04,23,17,51,8.30
2015,04,23,17,52,8.40
2015,04,23,17,53,8.50
2015,04,23,17,54,8.60
2015,04,23,17,55,8.60
2015,04,23,17,56,8.70
2015,04,23,17,57,8.70
2015,04,23,17,58,8.70
2015,04,23,17,59,8.70
2015,04,23,18,00,8.80
2015,04,23,18,01,8.80
2015,04,23,18,02,8.80
2015,04,23,18,03,8.90
2015,04,23,18,04,8.90
2015,04,23,18,05,8.90